{"data":{"norad_id":57582,"intl_designator":"2023-117C","name":"2023-117C","alt_names":[],"object_type":"PAYLOAD","status":"ACTIVE","operator":null,"country":"PRC","launch_date":"2023-08-10","launch_site_code":"JSC","launch_vehicle":null,"mission":null,"orbit_class":"UNKNOWN","rcs_meters":null,"size_class":null,"mass_kg":null,"dimensions":null,"purposes":[],"wikipedia_slug":null,"has_3d_model":false,"image_url":null,"decayed_at":null,"tle_current":{"epoch":"2026-09-21T22:34:52.826880Z","epoch_age_seconds":86283,"freshness":"FRESH","line1":"1 57582U 23117C   26264.94088920  .00019041  00000+0  40996-3 0  9996","line2":"2 57582  97.4004 347.4905 0005127 236.8020 123.2738 15.44652261173486","mean_motion":15.44652261,"eccentricity":0.0005127,"inclination_deg":97.4004,"raan_deg":347.4905,"arg_perigee_deg":236.802,"mean_anomaly_deg":123.2738,"bstar":0.00040996,"rev_number":17348,"period_min":93.224865968717,"perigee_km":428.90826371824,"apogee_km":435.89178838476,"semimajor_km":6810.5370260515,"source":"CELESTRAK","updated_at":"2026-09-22T09:00:26.233192Z"}}}